Showing default

CONNECTA T3.1, 58256

Orbit data source: Space-Track

CONNECTA T3.1, 58256 is a payload satellite owned by Plan-S (TR) in SSO that was launched on Sat, 11 Nov 2023 UTC via an FALCON 9 launch vehicle from the Air Force Western Test Range (AFWTR). Payload-class satellites include a variety of spacecraft equipped with specific instruments for various scientific and technological missions. These include communications satellites like Starlink; space stations such as the ISS; scientific satellites like the Hubble; Earth observation satellites from companies like Planet Labs, Umbra, and HawkEye 360; GPS; miniature CubeSats for education and research; and military/defense satellites.

Loading next visibility...
Identifier
58256, 2023-174A
Orbit
SSO
Country
Flag of UnknownUnknown / TURK
Related business
Manufacturer
Plan-S
Mission
Operational Commercial Communications
Bus & Motor
CUBESAT 3U, Unknown motor
Mass
5 kg wet, 5 kg dry
Launch date (UTC)
2023-11-11 (2 years ago)
Launch vehicle
FALCON 9
Launch site
Air Force Western Test Range (AFWTR)
Object type
Payload
Rocket body
Debris
Shape & HBR
Box + 2 Pan, 0.1 m
Radar Cross Section
0.080 m², Small (<0.1 m²)

Expand to show TLE details & history
Last TLE update: 2 days ago

TLE from 2 days ago
0 CONNECTA T3.1
1 58256U 23174A   25259.48829379  .00126221  00000-0  13664-2 0  9992
2 58256  97.3961 344.8918 0001987 104.4158 255.7321 15.63157977103817
Epoch: 2025-09-16T11:43Z
TLE epoch observation values (Epoch: 2025-09-16T11:43:08.583Z)
Latitude
-0.00003°
Longitude
173.42817°
Altitude
382.022 km
Speed
7.68 km/s
True Right ascension
22h 59m 34s
True Declination
0° 00' 00"
Sunlit
Object was in full shadow at epoch
Visualization orbit readout
Latitude
Unknown
Longitude
Unknown
Altitude
Unknown
Speed
Unknown
Apparent Right ascension
Unknown
Apparent Declination
Unknown
Sunlit
N/A
Visualization observer readout
Local Sidereal Time
22:18:18
Azimuth
Unknown
Elevation
Unknown
Doppler factor
Unknown
Orbital elements
Apogee altitude
376.792 km
Perigee altitude
374.108 km
Semi-major axis
6,753.587 km
Eccentricity
0.0002
Inclination
97.3961°
RAAN
344.8918°
Arg. of periapsis
104.4158°
True anomaly
255.71003°
Mean anomaly
255.7321°
Eccentric anomaly
255.72107°
Mean motion
3.91058 °/min
Orbital period
92.06 mins
BSTAR
0.0013664
Loading maneuver chart data...
Computing Atmospheric mass density...
Loading historical data...
Loading historical data...
Loading historical data...
Loading historical data...
Loading historical data...
Loading historical data...
Loading historical data...

Documentation

Showing up to 5 results
|